Location: Alexandria
(38.8050°N, 77.0470°W)
Time: 16:38:34
(UTC-04:00)

Tiangong 2 - Pass Details

Date: 10 March 2018
Orbit: 385 x 396 km, 42.8° (Epoch: 24 June)

Event Time Altitude Azimuth Distance (km) Brightness Sun altitude
Exits shadow 04:09:27 - 135° (SE) 1,851 4.8 -27.3°
Enters shadow 05:06:57 -71° 248° (WSW) 12,456 8.7 -16.4°
Maximum altitude 05:45:31 33° 150° (SSE) 674 2.6 -8.9°
